Regional Weather Roundup
Issued by NWS Cleveland, OH

Home | Current Version | Previous Version | Graphics & Text | Print | Product List | Glossary On
Versions: 1 2 3 4 5 6 7 8 9 10 11 12 13 14 15 16 17 18 19 20 21 22 23 24 25 26 27 28 29 30 31 32 33 34 35 36 37 38 39 40 41 42 43 44 45 46 47 48 49 50
000
ASUS41 KCLE 222010
RWRCLE
OHIO REGIONAL WEATHER ROUNDUP
NATIONAL WEATHER SERVICE CLEVELAND, OH
300 PM EST SUN JAN 22 2017

NOTE: "FAIR" INDICATES FEW OR NO CLOUDS BELOW 12,000 FEET WITH NO
SIGNIFICANT WEATHER AND/OR OBSTRUCTIONS TO VISIBILITY.

OHZ001>008-015>018-024>027-034-035-043-044-222100-
   NORTHWEST OHIO

CITY           SKY/WX    TMP DP  RH WIND       PRES   REMARKS
DEFIANCE       CLOUDY    58  50  75 NE8       29.55S
FINDLAY        MOSUNNY   63  48  58 NE5       29.51F
TOLEDO EXPRESS SUNNY     62  49  62 N8        29.55F
TOLEDO EXEC    SUNNY     49  45  86 NE10      29.57S
LIMA           CLOUDY    62  51  67 NE7       29.51F
$$

OHZ009>014-019>023-028>033-038-089-222100-
   NORTHEAST OHIO

CITY           SKY/WX    TMP DP  RH WIND       PRES   REMARKS
CLE-HOPKINS    CLOUDY    61  49  64 NE7       29.58F
CLE-LAKEFRONT  MOSUNNY   41  38  89 NE13      29.56F
CUY CO. ARPT   PTSUNNY   59  52  77 NE7       29.57F
LORAIN-ELYRIA  MOSUNNY   60  50  69 NE8       29.55F
ASHTABULA      CLOUDY    59  51  75 E3        29.59F
AKRON-CANTON   CLOUDY    61  49  64 E13       29.55F
WOOSTER        PTSUNNY   59  51  75 E10       29.55F
MANSFIELD      PTSUNNY   60  46  59 NE8       29.53F
YOUNGSTOWN     CLOUDY    57  50  77 NE6       29.58F
$$

OHZ042-051>053-060>062-070>072-077>081-222100-
  SOUTHWEST OHIO

CITY           SKY/WX    TMP DP  RH WIND       PRES   REMARKS
CINC-COVINGTON CLOUDY    61  50  67 NE14      29.44F
CINC-LUNKEN    MOSUNNY   63  52  67 NE9       29.45F
HAMILTON       MOSUNNY   64  51  62 NE9       29.46F
DAYTON         CLOUDY    61  48  62 NE9       29.49S
WRIGHT-PAT AFB CLOUDY    62  50  64 NE8       29.47F
DAYTON GENERAL CLOUDY    61  49  64 NE10      29.46S
WILMINGTON     PTSUNNY   60  50  69 NE10      29.46F
$$

OHZ036-037-039>041-045>050-054>059-063>069-073>076-082>088-222100-
  CENTRAL AND SOUTHEAST OHIO

CITY           SKY/WX    TMP DP  RH WIND       PRES   REMARKS
COLUMBUS       CLOUDY    64  47  53 E12       29.48F
OSU AIRPORT    CLOUDY    63  47  55 E9        29.48F
BOLTON FIELD   MOSUNNY   63  48  59 E6        29.49F
RICKENBACK AFB   N/A     62  48  61 E14       29.48S
NEWARK         MOSUNNY   63  46  54 E14       29.49F
MARION         PTSUNNY   63  46  54 E9        29.52F
LANCASTER      CLOUDY    65  48  54 NE13      29.48F
ZANESVILLE     PTSUNNY   64  46  52 E12       29.49F
NEW PHILLY     NOT AVBL
$$




USA.gov is the U.S. government's official web portal to all federal, state and local government web resources and services.